Starlink 11650

operational
NORAD ID: 63312 Int'l Des: 2025-057 Owner: SPXS Country: US Constellation: starlink
LEOCIRCULAR

About Starlink 11650

Description loading...

Live Position

Loading 3D Globe...

Upcoming Passes

Altitude History

Altitude vs Time

uPlot chart will show altitude changes over time

Two-Line Element Set

1 63312U 25057F 25351.52980013 .00166021 00000-0 12696-2 0 9990
2 63312 43.0003 39.9742 0001647 272.4333 87.6346 15.70878595 44280
Epoch: Dec 17, 2025 • Age: 10 hours

Current Status

Altitude 361.3 km
Velocity 7.69 km/s
Sub-Earth Point -24.38°S, 177.68°E
Launch Date Mar 18, 2025
Age 0.7 years
Type internet

Technical Details

Classification Payload
Mass 960.00 kg
Dry Mass 910.00 kg
Total Mass 960.00 kg
Length 0.30 m
Diameter 4.10 m
Span 29.00 m
Shape Box + pan
Manufacturer SPXS
Bus Type Starlink V2MD
Phase Status In Orbit
Owner/State SPXS/US

Large Constellations

Loading constellations...